Date String (YYYY-MM-DD hh:mm:ss) UTC,Instrument flags,Ambient pressure (hPa),Sample flow (lpm),Bypass flow (lpm),Sample temperature (°C),Ambient temperature (°C),ASC tube jacket temperature (°C),LED temperature (°C),Box temperature (°C),Sample RH (%),Span deviation,Mass concentration (μg/m³),Mass concentration (μg/m³),Mass concentration (μg/m³)
DateTimeUTC,F1_M11,P_M11,Q1_M11,Q2_M11,T1_M11,T2_M11,T3_M11,T4_M11,T5_M11,U1_M11,ZSPAN_M11,X0_M11,X2_M11,X1_M11
2022-11-09 07:00:00,,0820.0,5.00,0.00,27.2,25.7,00.0,36.0,29.1,08.5,0000.0,0007.73,0001.75,0001.23
2022-11-09 07:01:00,,0820.0,5.01,0.00,27.2,25.6,00.0,36.0,29.1,08.4,0000.0,0007.48,0001.75,0001.22
2022-11-09 07:02:00,,0820.0,5.00,0.00,27.2,25.7,00.0,36.0,29.1,08.3,0000.0,0007.57,0001.77,0001.22
2022-11-09 07:03:00,,0819.9,5.00,0.00,27.2,25.7,00.0,36.0,29.1,08.3,0000.0,0008.18,0001.79,0001.22
2022-11-09 07:04:00,,0819.9,4.99,0.00,27.2,25.7,00.0,36.0,29.1,08.3,0000.0,0008.13,0001.78,0001.20
2022-11-09 07:05:00,,0819.9,4.99,0.00,27.2,25.7,00.0,36.0,29.1,08.3,0000.0,0007.82,0001.71,0001.16
2022-11-09 07:06:00,,0819.9,5.01,0.00,27.2,25.7,00.0,36.0,29.1,08.3,0000.0,0007.30,0001.75,0001.15
2022-11-09 07:07:00,,0819.9,5.01,0.00,27.2,25.7,00.0,36.0,29.1,08.4,0000.0,0008.14,0001.75,0001.13
2022-11-09 07:08:00,,0819.9,4.99,0.00,27.2,25.7,00.0,36.0,29.1,08.5,0000.0,0008.39,0001.78,0001.13
2022-11-09 07:09:00,,0820.0,5.00,0.00,27.2,25.7,00.0,36.0,29.1,08.6,0000.0,0009.08,0001.82,0001.14
2022-11-09 07:10:00,,0820.0,5.00,0.00,27.2,25.7,00.0,36.0,29.1,08.8,0000.0,0008.87,0001.84,0001.15
2022-11-09 07:11:00,,0820.0,5.00,0.00,27.2,25.7,00.0,36.0,29.1,09.0,0000.0,0008.48,0001.92,0001.20
2022-11-09 07:12:00,,0820.0,5.01,0.00,27.2,25.7,00.0,36.0,29.1,09.2,0000.0,0008.40,0002.07,0001.29
2022-11-09 07:13:00,,0819.9,4.99,0.00,27.2,25.6,00.0,36.0,29.1,09.5,0000.0,0009.15,0002.24,0001.42
2022-11-09 07:14:00,,0819.9,5.00,0.00,27.2,25.6,00.0,36.0,29.1,09.8,0000.0,0009.14,0002.45,0001.56
2022-11-09 07:15:00,,0819.9,5.00,0.00,27.2,25.6,00.0,36.0,29.1,10.1,0000.0,0009.44,0002.77,0001.73
2022-11-09 07:16:00,,0820.0,5.00,0.00,27.2,25.6,00.0,36.0,29.1,10.3,0000.0,0009.70,0003.06,0001.94
2022-11-09 07:17:00,,0820.0,5.00,0.00,27.2,25.6,00.0,36.0,29.1,10.4,0000.0,0009.71,0003.26,0002.14
2022-11-09 07:18:00,,0820.0,5.00,0.00,27.2,25.6,00.0,36.0,29.1,10.6,0000.0,0009.32,0003.41,0002.33
2022-11-09 07:19:00,,0820.0,5.00,0.00,27.2,25.6,00.0,36.0,29.1,10.6,0000.0,0009.67,0003.54,0002.53
2022-11-09 07:20:00,,0820.0,5.00,0.00,27.2,25.6,00.0,36.0,29.1,10.7,0000.0,0009.51,0003.70,0002.71
2022-11-09 07:21:00,,0820.0,5.00,0.00,27.2,25.6,00.0,36.0,29.1,10.8,0000.0,0010.06,0003.89,0002.90
2022-11-09 07:22:00,,0820.0,5.00,0.00,27.2,25.6,00.0,36.0,29.1,10.9,0000.0,0010.71,0004.05,0003.07
2022-11-09 07:23:00,,0820.0,5.00,0.00,27.2,25.6,00.0,36.0,29.0,10.9,0000.0,0011.14,0004.20,0003.17
2022-11-09 07:24:00,,0820.0,5.01,0.00,27.2,25.5,00.0,35.9,29.0,11.0,0000.0,0011.21,0004.32,0003.23
2022-11-09 07:25:00,,0820.1,5.00,0.00,27.2,25.5,00.0,35.9,29.0,11.1,0000.0,0011.70,0004.35,0003.26
2022-11-09 07:26:00,,0820.2,5.00,0.00,27.2,25.5,00.0,35.9,29.0,11.1,0000.0,0011.79,0004.39,0003.29
2022-11-09 07:27:00,,0820.2,5.00,0.00,27.2,25.5,00.0,35.9,29.0,11.1,0000.0,0012.66,0004.42,0003.31
2022-11-09 07:28:00,,0820.2,5.01,0.00,27.2,25.5,00.0,35.9,29.0,11.2,0000.0,0014.01,0004.45,0003.33
2022-11-09 07:29:00,,0820.2,5.00,0.00,27.2,25.5,00.0,35.9,29.0,11.3,0000.0,0015.05,0004.49,0003.36
2022-11-09 07:30:00,,0820.2,5.01,0.00,27.2,25.5,00.0,35.9,29.0,11.5,0000.0,0015.14,0004.55,0003.38
2022-11-09 07:31:00,,0820.3,5.00,0.00,27.2,25.5,00.0,35.9,29.0,11.6,0000.0,0015.10,0004.57,0003.41
2022-11-09 07:32:00,,0820.3,4.99,0.00,27.1,25.5,00.0,35.9,29.0,11.7,0000.0,0015.09,0004.59,0003.45
2022-11-09 07:33:00,,0820.3,5.00,0.00,27.1,25.5,00.0,35.9,29.0,11.8,0000.0,0015.30,0004.58,0003.47
2022-11-09 07:34:00,,0820.3,5.01,0.00,27.1,25.5,00.0,35.9,29.0,11.9,0000.4,0015.68,0004.61,0003.50
2022-11-09 07:35:00,,0820.2,5.00,0.00,27.1,25.5,00.0,35.9,29.0,12.0,0000.0,0015.35,0004.60,0003.53
2022-11-09 07:36:00,,0820.2,4.99,0.00,27.1,25.5,00.0,35.9,29.0,12.0,0000.0,0014.39,0004.62,0003.57
2022-11-09 07:37:00,,0820.1,5.00,0.00,27.1,25.5,00.0,35.9,29.0,12.0,0000.0,0015.19,0004.69,0003.60
2022-11-09 07:38:00,,0820.0,5.00,0.00,27.1,25.5,00.0,35.9,29.0,12.1,0000.0,0014.68,0004.77,0003.65
2022-11-09 07:39:00,,0820.0,5.00,0.00,27.1,25.4,00.0,35.9,29.0,12.2,0000.0,0013.82,0004.80,0003.69
2022-11-09 07:40:00,,0820.2,5.01,0.00,27.1,25.4,00.0,35.9,29.0,12.2,0000.0,0013.60,0004.81,0003.72
2022-11-09 07:41:00,,0820.3,5.00,0.00,27.1,25.4,00.0,35.9,29.0,12.3,0000.0,0013.96,0004.86,0003.74
2022-11-09 07:42:00,,0820.3,5.01,0.00,27.1,25.4,00.0,35.9,29.0,12.3,0000.0,0015.15,0004.88,0003.78
2022-11-09 07:43:00,,0820.2,4.99,0.00,27.1,25.4,00.0,35.9,29.0,12.4,0000.0,0015.71,0004.90,0003.79
2022-11-09 07:44:00,,0820.2,4.99,0.00,27.1,25.4,00.0,35.9,28.9,12.4,0000.0,0015.51,0004.93,0003.82
2022-11-09 07:45:00,,0820.2,5.01,0.00,27.1,25.4,00.0,35.9,28.9,12.4,0000.0,0015.40,0004.98,0003.85
2022-11-09 07:46:00,,0820.2,5.01,0.00,27.1,25.4,00.0,35.8,29.0,12.4,0000.0,0015.98,0005.01,0003.88
2022-11-09 07:47:00,,0820.2,4.98,0.00,27.1,25.3,00.0,35.8,28.9,12.4,0000.0,0017.37,0005.11,0003.90
2022-11-09 07:48:00,,0820.2,4.99,0.00,27.1,25.3,00.0,35.8,28.9,12.4,0000.0,0017.81,0005.09,0003.92
2022-11-09 07:49:00,,0820.3,5.01,0.00,27.0,25.3,00.0,35.8,28.9,12.5,0000.0,0018.11,0005.10,0003.94
2022-11-09 07:50:00,,0820.2,5.00,0.00,27.0,25.3,00.0,35.8,28.9,12.5,0000.0,0018.04,0005.15,0003.95
2022-11-09 07:51:00,,0820.2,5.00,0.00,27.0,25.3,00.0,35.8,28.9,12.5,0000.0,0018.35,0005.21,0003.97
2022-11-09 07:52:00,,0820.2,5.00,0.00,27.0,25.3,00.0,35.8,28.8,12.5,0000.0,0018.37,0005.23,0003.99
2022-11-09 07:53:00,,0820.2,5.00,0.00,27.0,25.3,00.0,35.8,28.8,12.5,0000.0,0018.41,0005.26,0004.00
2022-11-09 07:54:00,,0820.3,5.00,0.00,27.0,25.3,00.0,35.8,28.8,12.5,0000.0,0018.08,0005.25,0004.02
2022-11-09 07:55:00,,0820.3,4.99,0.00,27.0,25.3,00.0,35.8,28.8,12.6,0001.7,0017.91,0005.31,0004.04
2022-11-09 07:56:00,,0820.3,4.99,0.00,27.0,25.3,00.0,35.8,28.8,12.6,0000.3,0017.78,0005.34,0004.05
2022-11-09 07:57:00,,0820.3,5.00,0.00,27.0,25.3,00.0,35.8,28.8,12.6,0000.0,0018.04,0005.35,0004.05
2022-11-09 07:58:00,,0820.3,5.00,0.00,27.0,25.2,00.0,35.8,28.8,12.6,0000.0,0017.88,0005.37,0004.06
2022-11-09 07:59:00,,0820.2,5.00,0.00,26.9,25.2,00.0,35.8,28.8,12.6,0000.0,0017.01,0005.39,0004.07
